[[{"header":{"parameterUnit":"m.s-1","parameterCategory":1,"la1":30.2991,"la2":30.254,"lo1":-89.0895,"lo2":-89.0444,"dy":0.0017,"dx":0.0017,"nx":28,"ny":28,"refTime":"2023-08-22T03:00:00:Z","depth":0,"parameterNumber":2,"parameterNumberName":"U-component_of_WINDS"},"data":[0,0,0,0,0,0,0,0,0,0,0,0,0,0,0,0,0,0,0,0,0,0,0,0,0,0,0,0,0,0,0,0,0,0,0,0,0,0,0,0,0,0,0,0,0,0,0,0,0,0,0,0,0,0,0,0,0,0,3.2726,3.2727,0,3.2752,3.2752,3.2752,3.2653,3.265,3.2647,3.2644,3.2671,3.2675,3.2678,0,0,0,0,0,0,0,0,0,0,0,0,0,3.2595,3.2598,3.2726,3.2727,3.2727,3.2752,3.2752,3.2752,3.2654,3.265,3.2646,3.2643,3.267,3.2674,3.2678,0,0,0,0,0,0,0,0,0,0,0,0,0,3.2639,3.2599,3.2726,3.2681,3.2677,3.2752,3.2752,3.2752,3.2654,3.265,3.2646,3.2641,3.2669,3.2674,3.2679,3.2799,0,0,3.2695,3.2697,0,0,0,0,0,0,0,0,3.2637,3.2644,3.2687,3.2684,3.268,3.2695,3.2715,3.2768,3.2655,3.2663,3.2644,3.2639,3.2683,3.2686,3.2701,3.28,3.2801,3.2695,3.2698,3.27,3.2702,0,0,0,0,0,0,0,3.2634,3.2643,3.2736,3.2688,3.2683,3.266,3.2661,3.2725,3.2697,3.2662,3.2655,3.2659,3.268,3.2696,3.2701,3.2802,3.2695,3.27,3.2703,3.2705,3.3003,3.3007,0,0,0,0,0,0,3.2637,3.2641,3.2736,3.2737,3.2647,3.2666,3.2667,3.2694,3.2696,3.2692,3.2663,3.2654,3.2689,3.2695,3.2701,3.2843,3.27,3.2705,3.2708,3.2998,3.3004,3.3009,0,0,0,0,0,0,3.2634,3.2646,3.2735,3.2687,3.2696,3.2673,3.2704,3.2697,3.2713,3.2697,3.2692,3.2684,3.2686,3.2694,3.2776,3.2843,3.2708,3.2712,3.2992,3.3,3.3007,3.3127,0,0,0,0,0,0,3.2631,3.2646,3.269,3.2689,3.2699,3.2808,3.2708,3.2701,3.2722,3.2712,3.2716,3.2712,3.2683,3.2769,3.2781,3.2847,3.2716,3.2986,3.2996,3.3004,3.3117,3.3138,3.3155,0,0,0,0,0,3.2626,3.2723,3.2693,3.2705,3.2755,3.2812,3.2818,3.2783,3.2728,3.2773,3.2763,3.2712,3.2833,3.2778,3.2791,3.286,3.2982,3.2993,3.3004,3.3109,3.3134,3.3155,0,0,0,0,0,0,3.2733,3.2722,3.2689,3.2788,3.2802,3.2795,3.2851,3.281,3.284,3.2829,3.2784,3.2786,3.2876,3.2876,3.2814,3.2977,3.2898,3.2912,3.2974,3.2997,3.3016,3.3014,3.2721,0,0,0,0,0,3.2768,3.2815,3.2803,3.2892,3.2901,3.2875,3.2899,3.2871,3.2883,3.2889,3.2884,3.2899,3.2941,3.2969,3.3006,3.3117,3.3117,3.3171,3.319,3.3206,3.3218,3.3278,3.3303,3.3045,3.3045,3.3044,0,0,3.2841,3.2841,3.2873,3.2913,3.2921,3.2972,3.2881,3.2938,3.2975,3.2897,3.2974,3.2972,3.2986,3.3083,3.3126,3.3086,3.329,3.3219,3.3232,3.3236,3.3292,3.3317,3.3338,3.3052,3.3051,3.305,0,0,3.2999,3.3004,3.3079,3.3089,3.3101,3.3084,3.3102,3.3103,3.3099,3.3175,3.3119,3.3163,3.3235,3.3248,3.3263,3.343,3.3384,3.3443,3.3543,3.3602,3.3622,3.364,3.37,3.3722,3.3456,3.3456,3.3456,0,3.3088,3.3162,3.3122,3.3184,3.3204,3.3136,3.3213,3.3224,3.3249,3.3265,3.322,3.331,3.3314,3.3415,3.3455,3.347,3.3491,3.3442,3.3622,3.364,3.3656,3.3713,3.3736,3.3463,3.3462,3.3462,3.3461,0,3.3271,3.3323,3.3382,3.3408,3.3435,3.3504,3.3476,3.3508,3.3478,3.3466,3.3546,3.3549,3.3587,3.3608,3.3579,3.3705,3.368,3.363,3.355,3.3688,3.3741,3.3763,3.3474,3.3471,3.3469,3.3467,0,0,3.3496,3.3501,3.3523,3.3535,3.3545,3.3585,3.3652,3.3688,3.3717,3.3737,3.3793,3.3856,3.381,3.3829,3.3801,3.3853,3.3986,3.3796,3.3795,3.3832,3.4126,3.4165,3.419,3.3956,3.396,3.3963,3.4125,0,3.3652,3.3765,3.3733,3.3847,3.3896,3.3833,3.3891,3.3905,3.3896,3.3937,3.3927,3.3973,3.3908,3.3919,3.3968,3.3959,3.4045,3.3947,3.4008,3.4011,3.4007,3.4218,3.4258,3.4411,3.4146,3.4149,3.4152,0,3.3849,3.3878,3.3997,3.4001,3.402,3.4073,3.4105,3.4144,3.4159,3.4149,3.417,3.4133,3.4199,3.4119,3.4211,3.4146,3.4169,3.4169,3.4174,3.4178,3.409,3.4229,3.4458,3.4482,3.4184,3.4181,3.4179,0,3.4003,3.4071,3.4151,3.4163,3.4169,3.4208,3.4213,3.4223,3.4248,3.4276,3.4292,3.4328,3.4348,3.4377,3.4351,3.4295,3.4448,3.4365,3.4442,3.4443,3.4477,3.4475,3.4714,3.4492,3.4491,3.4491,3.449,0,3.4181,3.4257,3.422,3.427,3.4353,3.4316,3.4399,3.4397,3.4407,3.4456,3.4404,3.4451,3.4413,3.4457,3.4437,3.4517,3.4526,3.4521,3.4514,3.4525,3.4526,3.454,3.4529,3.4497,3.4495,3.4494,3.4493,0,3.4366,3.4345,3.4428,3.4428,3.443,3.4492,3.4492,3.4538,3.4526,3.4589,3.4601,3.4583,3.4632,3.4609,3.466,3.4647,3.475,3.4729,3.4745,3.474,3.4819,3.4812,3.5075,3.5108,3.4864,3.4867,3.4869,0,3.4481,3.4538,3.4544,3.4573,3.4582,3.4629,3.4654,3.462,3.4649,3.4671,3.4715,3.476,3.4794,3.4877,3.4868,3.4908,3.4888,3.4978,3.4894,3.4904,3.489,3.4888,3.4894,3.4995,3.4997,3.5,3.5002,0,3.4688,3.4676,3.4714,3.475,3.4782,3.4808,3.483,3.4857,3.4824,3.4859,3.4909,3.4936,3.4989,3.5035,3.507,3.5075,3.5034,3.5028,3.5048,3.506,3.5068,3.5066,3.4792,3.5022,3.502,3.5019,3.5018,3.5017,3.4842,3.4891,3.4903,3.4948,3.4962,3.4984,3.5028,3.5022,3.5063,3.5104,3.5081,3.514,3.5155,3.5198,3.5209,3.5256,3.522,3.5249,3.5256,3.5264,3.5275,3.506,3.5262,3.5261,3.5261,3.526,3.526,0,3.5047,3.5053,3.5095,3.5128,3.5164,3.5122,3.5145,3.5178,3.523,3.5248,3.5283,3.5341,3.5386,3.5382,3.5423,3.5461,3.5443,3.5473,3.547,3.5472,3.5304,3.5283,3.5487,3.5487,3.5487,3.5487,3.5487,3.5487,3.5158,3.5238,3.5227,3.5314,3.5319,3.5376,3.5393,3.5414,3.5427,3.5495,3.5532,3.5529,3.5538,3.558,3.562,3.5618,3.5636,3.5673,3.5664,3.5507,3.5484,3.5463,3.5442,3.5677,3.5677,3.5829,3.583,3.5831]},{"header":{"parameterUnit":"m.s-1","parameterCategory":1,"la1":30.2991,"la2":30.254,"lo1":-89.0895,"lo2":-89.0444,"dy":0.0017,"dx":0.0017,"nx":28,"ny":28,"refTime":"2023-08-22T03:00:00:Z","depth":0,"parameterNumber":3,"parameterNumberName":"V-component_of_WINDS"},"data":[0,0,0,0,0,0,0,0,0,0,0,0,0,0,0,0,0,0,0,0,0,0,0,0,0,0,0,0,0,0,0,0,0,0,0,0,0,0,0,0,0,0,0,0,0,0,0,0,0,0,0,0,0,0,0,0,0,0,-1.8089,-1.8089,0,-1.8121,-1.8121,-1.8121,-1.8123,-1.8122,-1.8122,-1.8122,-1.8152,-1.8154,-1.8155,0,0,0,0,0,0,0,0,0,0,0,0,0,-1.8028,-1.8029,-1.8089,-1.8089,-1.809,-1.8121,-1.8121,-1.8122,-1.8123,-1.8122,-1.8122,-1.8122,-1.8152,-1.8153,-1.8155,0,0,0,0,0,0,0,0,0,0,0,0,0,-1.8056,-1.8029,-1.8089,-1.8094,-1.8095,-1.8121,-1.8121,-1.8122,-1.8123,-1.8122,-1.8122,-1.8121,-1.8152,-1.8153,-1.8155,-1.8177,0,0,-1.816,-1.8161,0,0,0,0,0,0,0,0,-1.8055,-1.8058,-1.8093,-1.8094,-1.8095,-1.8117,-1.8111,-1.814,-1.8123,-1.8112,-1.8122,-1.8121,-1.8141,-1.8144,-1.8151,-1.8178,-1.818,-1.8161,-1.8162,-1.8162,-1.8163,0,0,0,0,0,0,0,-1.8053,-1.8057,-1.8101,-1.8093,-1.8095,-1.8094,-1.8098,-1.8116,-1.8129,-1.8113,-1.8113,-1.8117,-1.8141,-1.8149,-1.8152,-1.818,-1.816,-1.8162,-1.8163,-1.8164,-1.8227,-1.8228,0,0,0,0,0,0,-1.805,-1.8055,-1.81,-1.8102,-1.8073,-1.8096,-1.81,-1.8111,-1.8129,-1.8131,-1.8118,-1.8117,-1.8146,-1.8149,-1.8153,-1.8179,-1.8162,-1.8164,-1.8165,-1.8227,-1.8227,-1.8228,0,0,0,0,0,0,-1.8048,-1.8054,-1.8099,-1.8079,-1.8085,-1.8098,-1.811,-1.8111,-1.8119,-1.8133,-1.8135,-1.8123,-1.8146,-1.815,-1.8171,-1.818,-1.8165,-1.8166,-1.8226,-1.8227,-1.8228,-1.8233,0,0,0,0,0,0,-1.8047,-1.8053,-1.8062,-1.8079,-1.8086,-1.8117,-1.811,-1.8112,-1.8122,-1.8122,-1.8138,-1.814,-1.8146,-1.8168,-1.8173,-1.8183,-1.8168,-1.8225,-1.8226,-1.8227,-1.8232,-1.8234,-1.8236,0,0,0,0,0,-1.8045,-1.8062,-1.8063,-1.8068,-1.8097,-1.8118,-1.8122,-1.8128,-1.8123,-1.8132,-1.814,-1.814,-1.8179,-1.8171,-1.8175,-1.8186,-1.8225,-1.8226,-1.8227,-1.8231,-1.8234,-1.8236,0,0,0,0,0,0,-1.8045,-1.8064,-1.8065,-1.8089,-1.8102,-1.8118,-1.8129,-1.8131,-1.8145,-1.8144,-1.8151,-1.8154,-1.8175,-1.8183,-1.8173,-1.8208,-1.8201,-1.8203,-1.8202,-1.8205,-1.8206,-1.8204,-1.8169,0,0,0,0,0,-1.8048,-1.8064,-1.808,-1.8099,-1.8106,-1.8116,-1.8126,-1.813,-1.8143,-1.8148,-1.8159,-1.8171,-1.8186,-1.8196,-1.8211,-1.8233,-1.8237,-1.8243,-1.8245,-1.8246,-1.8248,-1.826,-1.8263,-1.8233,-1.8233,-1.8233,0,0,-1.8054,-1.8067,-1.8076,-1.8099,-1.811,-1.8126,-1.8121,-1.8138,-1.8149,-1.8151,-1.8171,-1.8179,-1.8194,-1.8216,-1.8226,-1.8222,-1.8257,-1.8248,-1.8249,-1.825,-1.8262,-1.8265,-1.8268,-1.8234,-1.8234,-1.8233,0,0,-1.8073,-1.8084,-1.8102,-1.8113,-1.8129,-1.8136,-1.814,-1.8156,-1.8162,-1.8183,-1.8184,-1.8198,-1.8224,-1.8234,-1.8242,-1.8266,-1.8266,-1.827,-1.828,-1.8292,-1.8294,-1.8296,-1.8304,-1.8307,-1.8272,-1.8272,-1.8272,0,-1.8078,-1.8103,-1.811,-1.8127,-1.8137,-1.814,-1.8157,-1.8167,-1.8187,-1.8194,-1.819,-1.8223,-1.8233,-1.8257,-1.8263,-1.827,-1.8274,-1.8268,-1.8293,-1.8295,-1.8297,-1.8305,-1.8308,-1.8273,-1.8273,-1.8273,-1.8273,0,-1.8108,-1.8125,-1.8137,-1.8157,-1.8168,-1.8185,-1.8195,-1.8205,-1.8208,-1.8216,-1.8237,-1.8249,-1.8266,-1.8272,-1.8275,-1.8297,-1.8294,-1.8292,-1.8285,-1.8301,-1.8308,-1.8311,-1.8273,-1.8273,-1.8273,-1.8273,0,0,-1.8128,-1.8152,-1.8156,-1.8165,-1.8184,-1.8196,-1.8213,-1.8231,-1.8239,-1.8253,-1.8267,-1.8289,-1.8287,-1.8297,-1.8301,-1.8312,-1.8329,-1.8308,-1.8308,-1.8311,-1.8353,-1.8354,-1.8357,-1.8329,-1.833,-1.833,-1.8351,0,-1.8148,-1.8179,-1.8187,-1.8213,-1.8228,-1.8231,-1.8246,-1.8258,-1.8266,-1.8279,-1.8287,-1.8303,-1.8299,-1.8305,-1.8316,-1.8324,-1.8337,-1.8323,-1.8341,-1.8342,-1.8337,-1.8361,-1.8363,-1.8382,-1.8354,-1.8355,-1.8355,0,-1.8176,-1.8191,-1.8219,-1.8236,-1.8242,-1.8255,-1.8272,-1.8285,-1.8299,-1.8304,-1.8315,-1.8318,-1.8335,-1.8328,-1.8352,-1.8342,-1.835,-1.8355,-1.8356,-1.8358,-1.8349,-1.8363,-1.8388,-1.8391,-1.836,-1.8359,-1.8359,0,-1.8187,-1.8215,-1.8235,-1.8242,-1.8262,-1.8271,-1.828,-1.8293,-1.8303,-1.8318,-1.8324,-1.834,-1.8348,-1.836,-1.8368,-1.8362,-1.839,-1.8384,-1.8394,-1.8394,-1.8399,-1.8399,-1.8426,-1.8406,-1.8406,-1.8406,-1.8405,0,-1.8209,-1.8226,-1.824,-1.8252,-1.8271,-1.8279,-1.8297,-1.8306,-1.8318,-1.8331,-1.8335,-1.8348,-1.8357,-1.837,-1.8376,-1.8394,-1.8398,-1.8402,-1.8403,-1.8402,-1.8401,-1.8406,-1.8405,-1.8406,-1.8406,-1.8406,-1.8406,0,-1.8225,-1.8235,-1.8257,-1.8274,-1.8278,-1.8291,-1.8306,-1.8317,-1.8325,-1.8342,-1.8347,-1.8359,-1.8375,-1.8384,-1.8404,-1.8408,-1.8428,-1.8429,-1.8423,-1.8424,-1.8433,-1.8432,-1.8465,-1.8469,-1.8446,-1.8446,-1.8447,0,-1.8238,-1.8251,-1.8269,-1.8279,-1.8288,-1.8303,-1.8314,-1.8322,-1.8333,-1.835,-1.8359,-1.8376,-1.839,-1.8416,-1.8426,-1.8441,-1.8442,-1.8452,-1.8444,-1.8442,-1.8441,-1.844,-1.8441,-1.8453,-1.8454,-1.8454,-1.8454,0,-1.826,-1.8264,-1.8279,-1.8296,-1.8308,-1.8322,-1.8335,-1.8342,-1.8353,-1.8365,-1.8382,-1.8392,-1.8413,-1.843,-1.8446,-1.8454,-1.8456,-1.8457,-1.846,-1.8458,-1.8454,-1.8455,-1.8427,-1.8456,-1.8455,-1.8455,-1.8455,-1.8455,-1.8274,-1.8285,-1.83,-1.8317,-1.8328,-1.834,-1.8352,-1.8362,-1.8376,-1.8394,-1.8398,-1.8416,-1.843,-1.8452,-1.8461,-1.8475,-1.8472,-1.8477,-1.8478,-1.8479,-1.8479,-1.8452,-1.8478,-1.8478,-1.8478,-1.8477,-1.8477,0,-1.8296,-1.8305,-1.8321,-1.8339,-1.8352,-1.8353,-1.8368,-1.8379,-1.8395,-1.8408,-1.8421,-1.8441,-1.8456,-1.8468,-1.8484,-1.8493,-1.8494,-1.8497,-1.8496,-1.8498,-1.848,-1.8476,-1.8496,-1.8496,-1.8496,-1.8496,-1.8496,-1.8495,-1.8308,-1.8328,-1.8334,-1.8359,-1.8369,-1.8387,-1.8395,-1.8406,-1.8417,-1.8438,-1.8452,-1.8459,-1.8472,-1.8489,-1.8503,-1.8506,-1.8512,-1.8514,-1.8517,-1.8501,-1.8499,-1.8497,-1.8493,-1.8516,-1.8516,-1.8533,-1.8533,-1.8533]}]]